Time,TemperatureF,DewpointF,PressureIn,WindDirection,WindDirectionDegrees,WindSpeedMPH,WindSpeedGustMPH,Humidity,HourlyPrecipIn,Conditions,Clouds,dailyrainin,SoftwareType,DateUTC
2013-01-25 00:02:00,11.7,6.7,29.80,SSE,157,1.7,-999.0,80,-99.99,,,0.00,Acu-Link.com,2013-01-25 06:02:00,
2013-01-25 00:17:00,11.7,6.7,29.79,ESE,112,1.7,-999.0,80,-99.99,,,0.00,Acu-Link.com,2013-01-25 06:17:00,
2013-01-25 00:33:00,11.8,6.8,29.78,SSE,157,1.7,-999.0,80,-99.99,,,0.00,Acu-Link.com,2013-01-25 06:33:00,
2013-01-25 00:48:00,11.8,7.1,29.77,West,270,1.1,-999.0,81,-99.99,,,0.00,Acu-Link.com,2013-01-25 06:48:00,
2013-01-25 01:03:00,12.0,7.3,29.76,SSE,157,0.0,-999.0,81,-99.99,,,0.00,Acu-Link.com,2013-01-25 07:03:00,
2013-01-25 01:19:00,12.0,7.3,29.75,West,270,0.0,-999.0,81,-99.99,,,0.00,Acu-Link.com,2013-01-25 07:19:00,
2013-01-25 01:34:00,12.2,7.5,29.74,West,270,0.0,-999.0,81,-99.99,,,0.00,Acu-Link.com,2013-01-25 07:34:00,
2013-01-25 01:49:00,12.4,7.7,29.73,South,180,0.0,-999.0,81,-99.99,,,0.00,Acu-Link.com,2013-01-25 07:49:00,
2013-01-25 02:05:00,12.4,7.7,29.72,West,270,1.7,-999.0,81,-99.99,,,0.00,Acu-Link.com,2013-01-25 08:05:00,
2013-01-25 02:20:00,12.4,8.0,29.71,SSW,202,0.0,-999.0,82,-99.99,,,0.00,Acu-Link.com,2013-01-25 08:20:00,
2013-01-25 02:35:00,12.4,8.0,29.70,East,90,1.1,-999.0,82,-99.99,,,0.00,Acu-Link.com,2013-01-25 08:35:00,
2013-01-25 02:51:00,12.7,8.3,29.68,SSE,157,2.2,-999.0,82,-99.99,,,0.00,Acu-Link.com,2013-01-25 08:51:00,
2013-01-25 03:16:00,12.7,8.3,29.67,ESE,112,0.0,-999.0,82,-99.99,,,0.00,Acu-Link.com,2013-01-25 09:16:00,
2013-01-25 03:31:00,12.9,8.5,29.67,ESE,112,1.1,-999.0,82,-99.99,,,0.00,Acu-Link.com,2013-01-25 09:31:00,
2013-01-25 03:46:00,13.5,9.0,29.65,WSW,247,0.0,-999.0,82,-99.99,,,0.00,Acu-Link.com,2013-01-25 09:46:00,
2013-01-25 04:01:00,14.2,9.5,29.64,ESE,112,2.2,-999.0,81,-99.99,,,0.00,Acu-Link.com,2013-01-25 10:01:00,
2013-01-25 04:16:00,14.5,9.8,29.63,ESE,112,1.1,-999.0,81,-99.99,,,0.00,Acu-Link.com,2013-01-25 10:16:00,
2013-01-25 04:32:00,14.9,10.4,29.62,SSE,157,2.2,-999.0,82,-99.99,,,0.00,Acu-Link.com,2013-01-25 10:32:00,
2013-01-25 04:47:00,14.9,10.7,29.62,SSW,202,3.2,-999.0,83,-99.99,,,0.00,Acu-Link.com,2013-01-25 10:47:00,
2013-01-25 05:02:00,15.3,10.8,29.61,SSW,202,2.2,-999.0,82,-99.99,,,0.00,Acu-Link.com,2013-01-25 11:02:00,
2013-01-25 05:18:00,15.6,11.1,29.60,SW,225,3.2,-999.0,82,-99.99,,,0.00,Acu-Link.com,2013-01-25 11:18:00,
2013-01-25 05:33:00,15.8,11.0,29.60,ESE,112,2.7,-999.0,81,-99.99,,,0.00,Acu-Link.com,2013-01-25 11:33:00,
2013-01-25 05:49:00,16.2,10.0,29.59,SE,135,6.3,-999.0,76,-99.99,,,0.00,Acu-Link.com,2013-01-25 11:49:00,
2013-01-25 06:04:00,15.8,10.2,29.59,South,180,4.7,-999.0,78,-99.99,,,0.00,Acu-Link.com,2013-01-25 12:04:00,
2013-01-25 06:19:00,15.6,10.6,29.58,SSE,157,3.2,-999.0,80,-99.99,,,0.00,Acu-Link.com,2013-01-25 12:19:00,
2013-01-25 06:34:00,15.3,10.5,29.58,ESE,112,2.7,-999.0,81,-99.99,,,0.00,Acu-Link.com,2013-01-25 12:34:00,
2013-01-25 06:50:00,15.1,10.3,29.56,SE,135,3.2,-999.0,81,-99.99,,,0.00,Acu-Link.com,2013-01-25 12:50:00,
2013-01-25 07:05:00,15.1,10.6,29.56,SSW,202,5.3,-999.0,82,-99.99,,,0.00,Acu-Link.com,2013-01-25 13:05:00,
2013-01-25 07:20:00,15.1,10.6,29.56,SE,135,5.3,-999.0,82,-99.99,,,0.00,Acu-Link.com,2013-01-25 13:20:00,
2013-01-25 07:36:00,15.3,10.8,29.55,West,270,3.7,-999.0,82,-99.99,,,0.00,Acu-Link.com,2013-01-25 13:36:00,
2013-01-25 07:51:00,15.6,10.8,29.55,SW,225,3.2,-999.0,81,-99.99,,,0.00,Acu-Link.com,2013-01-25 13:51:00,
2013-01-25 08:07:00,16.0,11.2,29.54,West,270,6.3,-999.0,81,-99.99,,,0.00,Acu-Link.com,2013-01-25 14:07:00,
2013-01-25 08:22:00,16.3,11.2,29.53,SE,135,2.2,-999.0,80,-99.99,,,0.00,Acu-Link.com,2013-01-25 14:22:00,
2013-01-25 08:37:00,16.7,11.3,29.52,ESE,112,2.7,-999.0,79,-99.99,,,0.00,Acu-Link.com,2013-01-25 14:37:00,
2013-01-25 08:52:00,17.2,11.5,29.51,SW,225,5.8,-999.0,78,-99.99,,,0.00,Acu-Link.com,2013-01-25 14:52:00,
2013-01-25 09:08:00,17.8,12.1,29.52,SSE,157,5.8,-999.0,78,-99.99,,,0.00,Acu-Link.com,2013-01-25 15:08:00,
2013-01-25 09:23:00,18.9,12.9,29.52,East,90,4.7,-999.0,77,-99.99,,,0.00,Acu-Link.com,2013-01-25 15:23:00,
2013-01-25 09:38:00,19.0,12.7,29.52,ESE,112,6.8,-999.0,76,-99.99,,,0.00,Acu-Link.com,2013-01-25 15:38:00,
2013-01-25 09:54:00,19.2,12.9,29.51,SW,225,4.2,-999.0,76,-99.99,,,0.00,Acu-Link.com,2013-01-25 15:54:00,
2013-01-25 10:09:00,19.2,12.9,29.51,East,90,9.9,-999.0,76,-99.99,,,0.00,Acu-Link.com,2013-01-25 16:09:00,
2013-01-25 10:25:00,19.2,12.9,29.51,SSW,202,3.7,-999.0,76,-99.99,,,0.00,Acu-Link.com,2013-01-25 16:25:00,
2013-01-25 10:40:00,19.9,13.6,29.51,South,180,4.2,-999.0,76,-99.99,,,0.00,Acu-Link.com,2013-01-25 16:40:00,
2013-01-25 10:55:00,19.9,13.6,29.50,WNW,292,5.8,-999.0,76,-99.99,,,0.00,Acu-Link.com,2013-01-25 16:55:00,
2013-01-25 11:11:00,20.7,14.4,29.49,SE,135,4.7,-999.0,76,-99.99,,,0.00,Acu-Link.com,2013-01-25 17:11:00,
2013-01-25 11:26:00,20.5,13.9,29.49,NNE,22,3.2,-999.0,75,-99.99,,,0.00,Acu-Link.com,2013-01-25 17:26:00,
2013-01-25 11:41:00,21.0,14.3,29.48,SSW,202,5.8,-999.0,75,-99.99,,,0.00,Acu-Link.com,2013-01-25 17:41:00,
2013-01-25 11:57:00,21.6,14.9,29.48,East,90,3.7,-999.0,75,-99.99,,,0.00,Acu-Link.com,2013-01-25 17:57:00,
2013-01-25 12:12:00,21.2,14.5,29.47,West,270,4.7,-999.0,75,-99.99,,,0.00,Acu-Link.com,2013-01-25 18:12:00,
2013-01-25 12:27:00,20.5,13.9,29.47,ENE,67,3.2,-999.0,75,-99.99,,,0.00,Acu-Link.com,2013-01-25 18:27:00,
2013-01-25 12:43:00,21.6,15.5,29.47,ESE,112,2.7,-999.0,77,-99.99,,,0.00,Acu-Link.com,2013-01-25 18:43:00,
2013-01-25 12:58:00,22.3,15.6,29.46,ESE,112,4.7,-999.0,75,-99.99,,,0.00,Acu-Link.com,2013-01-25 18:58:00,
2013-01-25 13:13:00,22.3,15.6,29.47,ESE,112,2.2,-999.0,75,-99.99,,,0.00,Acu-Link.com,2013-01-25 19:13:00,
2013-01-25 13:29:00,22.5,15.8,29.47,WSW,247,3.2,-999.0,75,-99.99,,,0.00,Acu-Link.com,2013-01-25 19:29:00,
2013-01-25 13:44:00,22.8,15.8,29.47,East,90,1.7,-999.0,74,-99.99,,,0.00,Acu-Link.com,2013-01-25 19:44:00,
2013-01-25 13:59:00,22.6,15.6,29.47,SSE,157,3.7,-999.0,74,-99.99,,,0.00,Acu-Link.com,2013-01-25 19:59:00,
2013-01-25 14:14:00,21.6,14.6,29.48,ESE,112,2.2,-999.0,74,-99.99,,,0.00,Acu-Link.com,2013-01-25 20:14:00,
2013-01-25 14:30:00,21.0,14.0,29.49,ESE,112,2.7,-999.0,74,-99.99,,,0.00,Acu-Link.com,2013-01-25 20:30:00,
2013-01-25 14:45:00,22.1,15.4,29.50,NNE,22,2.2,-999.0,75,-99.99,,,0.00,Acu-Link.com,2013-01-25 20:45:00,
2013-01-25 15:01:00,22.6,15.9,29.51,ENE,67,3.7,-999.0,75,-99.99,,,0.00,Acu-Link.com,2013-01-25 21:01:00,
2013-01-25 15:16:00,21.4,14.7,29.51,ENE,67,1.7,-999.0,75,-99.99,,,0.00,Acu-Link.com,2013-01-25 21:16:00,
2013-01-25 15:31:00,21.4,15.0,29.52,South,180,4.2,-999.0,76,-99.99,,,0.00,Acu-Link.com,2013-01-25 21:31:00,
2013-01-25 15:47:00,20.8,14.5,29.51,South,180,4.2,-999.0,76,-99.99,,,0.00,Acu-Link.com,2013-01-25 21:47:00,
2013-01-25 16:02:00,20.1,13.8,29.53,SSW,202,2.7,-999.0,76,-99.99,,,0.00,Acu-Link.com,2013-01-25 22:02:00,
2013-01-25 16:17:00,19.8,14.1,29.54,West,270,2.2,-999.0,78,-99.99,,,0.00,Acu-Link.com,2013-01-25 22:17:00,
2013-01-25 16:32:00,19.4,13.7,29.55,ESE,112,0.0,-999.0,78,-99.99,,,0.00,Acu-Link.com,2013-01-25 22:32:00,
2013-01-25 16:48:00,19.0,13.6,29.56,NE,45,0.0,-999.0,79,-99.99,,,0.00,Acu-Link.com,2013-01-25 22:48:00,
2013-01-25 17:03:00,18.7,13.6,29.56,WSW,247,0.0,-999.0,80,-99.99,,,0.00,Acu-Link.com,2013-01-25 23:03:00,
2013-01-25 17:19:00,18.5,13.4,29.57,ESE,112,2.2,-999.0,80,-99.99,,,0.00,Acu-Link.com,2013-01-25 23:19:00,
2013-01-25 17:34:00,18.5,13.7,29.58,ESE,112,2.2,-999.0,81,-99.99,,,0.00,Acu-Link.com,2013-01-25 23:34:00,
2013-01-25 17:49:00,18.5,13.7,29.59,ESE,112,1.1,-999.0,81,-99.99,,,0.00,Acu-Link.com,2013-01-25 23:49:00,
2013-01-25 18:05:00,18.5,13.9,29.59,NW,315,1.7,-999.0,82,-99.99,,,0.00,Acu-Link.com,2013-01-26 00:05:00,
2013-01-25 18:20:00,18.7,13.9,29.60,North,0,2.7,-999.0,81,-99.99,,,0.00,Acu-Link.com,2013-01-26 00:20:00,
2013-01-25 18:35:00,18.7,13.9,29.61,SE,135,4.7,-999.0,81,-99.99,,,0.00,Acu-Link.com,2013-01-26 00:35:00,
2013-01-25 18:51:00,18.3,13.2,29.61,East,90,3.7,-999.0,80,-99.99,,,0.00,Acu-Link.com,2013-01-26 00:51:00,
2013-01-25 19:06:00,18.1,12.7,29.62,NE,45,5.3,-999.0,79,-99.99,,,0.00,Acu-Link.com,2013-01-26 01:06:00,
2013-01-25 19:22:00,18.0,12.3,29.63,NW,315,4.7,-999.0,78,-99.99,,,0.00,Acu-Link.com,2013-01-26 01:22:00,
2013-01-25 19:37:00,17.8,12.1,29.64,NNW,337,3.7,-999.0,78,-99.99,,,0.00,Acu-Link.com,2013-01-26 01:37:00,
2013-01-25 19:53:00,17.4,11.7,29.64,South,180,3.7,-999.0,78,-99.99,,,0.00,Acu-Link.com,2013-01-26 01:53:00,
2013-01-25 20:08:00,17.2,11.5,29.66,NNE,22,7.3,-999.0,78,-99.99,,,0.00,Acu-Link.com,2013-01-26 02:08:00,
2013-01-25 20:23:00,17.2,11.3,29.66,NW,315,4.7,-999.0,77,-99.99,,,0.00,Acu-Link.com,2013-01-26 02:23:00,
2013-01-25 20:39:00,17.1,11.2,29.66,WNW,292,5.3,-999.0,77,-99.99,,,0.00,Acu-Link.com,2013-01-26 02:39:00,
2013-01-25 20:54:00,16.5,10.0,29.67,East,90,6.8,-999.0,75,-99.99,,,0.00,Acu-Link.com,2013-01-26 02:54:00,
2013-01-25 21:10:00,16.2,9.7,29.67,West,270,6.3,-999.0,75,-99.99,,,0.00,Acu-Link.com,2013-01-26 03:10:00,
2013-01-25 21:25:00,15.4,8.9,29.69,West,270,3.7,-999.0,75,-99.99,,,0.00,Acu-Link.com,2013-01-26 03:25:00,
2013-01-25 21:40:00,14.7,8.2,29.69,NE,45,4.7,-999.0,75,-99.99,,,0.00,Acu-Link.com,2013-01-26 03:40:00,
2013-01-25 21:56:00,14.4,7.7,29.70,NW,315,6.3,-999.0,74,-99.99,,,0.00,Acu-Link.com,2013-01-26 03:56:00,
2013-01-25 22:11:00,13.8,7.1,29.71,NNW,337,3.7,-999.0,74,-99.99,,,0.00,Acu-Link.com,2013-01-26 04:11:00,
2013-01-25 22:27:00,13.5,7.1,29.71,WSW,247,3.2,-999.0,75,-99.99,,,0.00,Acu-Link.com,2013-01-26 04:27:00,
2013-01-25 22:42:00,12.9,6.5,29.72,North,0,2.7,-999.0,75,-99.99,,,0.00,Acu-Link.com,2013-01-26 04:42:00,
2013-01-25 22:57:00,12.4,6.3,29.73,ESE,112,1.7,-999.0,76,-99.99,,,0.00,Acu-Link.com,2013-01-26 04:57:00,
2013-01-25 23:13:00,11.8,6.0,29.74,ESE,112,3.7,-999.0,77,-99.99,,,0.00,Acu-Link.com,2013-01-26 05:13:00,
2013-01-25 23:28:00,11.5,5.7,29.75,North,0,3.7,-999.0,77,-99.99,,,0.00,Acu-Link.com,2013-01-26 05:28:00,
2013-01-25 23:43:00,10.9,5.1,29.76,East,90,4.2,-999.0,77,-99.99,,,0.00,Acu-Link.com,2013-01-26 05:43:00,
2013-01-25 23:59:00,10.9,5.1,29.76,NE,45,2.2,-999.0,77,-99.99,,,0.00,Acu-Link.com,2013-01-26 05:59:00,